| time (UTC) | temp F | wind direction | speed MPH | gust MPH | rain 1hr in | rain 24hr in | rain mn in | humidity % | barometer mb |
| 20260506131511 | 62 | 354 | 6.0 | 12.0 | 0.00 | 0.00 | 0.00 | 82 | 1010.1 |
| 20260506130012 | 61 | 241 | 8.0 | 14.0 | 0.00 | 0.00 | 0.00 | 83 | 1010.1 |
| 20260506124508 | 62 | 231 | 5.0 | 12.0 | 0.00 | 0.00 | 0.00 | 83 | 1010.2 |
| 20260506123008 | 62 | 165 | 6.0 | 12.0 | 0.00 | 0.00 | 0.00 | 82 | 1010.2 |
| 20260506121505 | 62 | 210 | 5.0 | 13.0 | 0.00 | 0.00 | 0.00 | 83 | 1010.4 |
| 20260506120005 | 60 | 161 | 6.0 | 16.0 | 0.00 | 0.00 | 0.00 | 85 | 1010.7 |
| 20260506114506 | 60 | 191 | 4.0 | 13.0 | 0.00 | 0.00 | 0.00 | 86 | 1010.6 |
| 20260506113003 | 59 | 183 | 4.0 | 13.0 | 0.00 | 0.00 | 0.00 | 88 | 1010.4 |
| 20260506111502 | 58 | 211 | 5.0 | 12.0 | 0.00 | 0.00 | 0.00 | 89 | 1010.4 |
| 20260506110002 | 58 | 200 | 5.0 | 16.0 | 0.00 | 0.00 | 0.00 | 90 | 1010.6 |
| 20260506104601 | 57 | 212 | 7.0 | 16.0 | 0.00 | 0.00 | 0.00 | 90 | 1010.4 |
| 20260506103119 | 57 | 202 | 4.0 | 13.0 | 0.00 | 0.00 | 0.00 | 91 | 1010.3 |
| 20260506101557 | 56 | 157 | 5.0 | 11.0 | 0.00 | 0.00 | 0.00 | 91 | 1010.2 |
| 20260506100056 | 56 | 203 | 6.0 | 13.0 | 0.00 | 0.00 | 0.00 | 91 | 1010.2 |
| 20260506094604 | 56 | 219 | 4.0 | 12.0 | 0.00 | 0.00 | 0.00 | 91 | 1010.0 |
| 20260506093053 | 56 | 201 | 4.0 | 14.0 | 0.00 | 0.00 | 0.00 | 91 | 1010.1 |
| 20260506091556 | 56 | 174 | 6.0 | 13.0 | 0.00 | 0.00 | 0.00 | 90 | 1010.0 |
| 20260506090054 | 56 | 222 | 7.0 | 20.0 | 0.00 | 0.00 | 0.00 | 90 | 1010.2 |
| 20260506084601 | 56 | 210 | 7.0 | 15.0 | 0.00 | 0.00 | 0.00 | 90 | 1010.2 |
| 20260506083044 | 56 | 216 | 7.0 | 15.0 | 0.00 | 0.00 | 0.00 | 90 | 1010.3 |
| 20260506081544 | 56 | 248 | 5.0 | 13.0 | 0.00 | 0.00 | 0.00 | 90 | 1010.3 |
| 20260506073040 | 57 | 191 | 8.0 | 18.0 | 0.00 | 0.00 | 0.00 | 89 | 1010.6 |
| 20260506071535 | 57 | 229 | 7.0 | 15.0 | 0.00 | 0.00 | 0.00 | 88 | 1010.6 |
| 20260506061543 | 57 | 217 | 7.0 | 14.0 | 0.00 | 0.00 | 0.00 | 87 | 1010.7 |
| 20260506044517 | 60 | 210 | 5.0 | 15.0 | 0.00 | 0.00 | 0.00 | 83 | 1011.0 |
| 20260506043010 | 60 | 226 | 8.0 | 16.0 | 0.00 | 0.00 | 0.00 | 82 | 1011.0 |
| 20260506041505 | 61 | 191 | 8.0 | 13.0 | 0.00 | 0.00 | 0.00 | 81 | 1010.9 |
| 20260506040001 | 62 | 161 | 8.0 | 17.0 | 0.00 | 0.00 | 0.00 | 80 | 1011.0 |
| 20260506034502 | 62 | 181 | 5.0 | 17.0 | 0.00 | 0.00 | 0.00 | 79 | 1010.9 |
| 20260506033004 | 63 | 215 | 7.0 | 24.0 | 0.00 | 0.00 | 0.00 | 78 | 1010.8 |
| 20260506031600 | 63 | 163 | 12.0 | 19.0 | 0.00 | 0.00 | 0.00 | 78 | 1010.8 |
| 20260506030059 | 63 | 248 | 6.0 | 17.0 | 0.00 | 0.00 | 0.00 | 77 | 1010.9 |
| 20260506024600 | 63 | 213 | 8.0 | 18.0 | 0.00 | 0.00 | 0.00 | 77 | 1010.9 |
| 20260506023058 | 62 | 174 | 9.0 | 18.0 | 0.00 | 0.00 | 0.00 | 76 | 1010.8 |
| 20260506021605 | 63 | 186 | 8.0 | 23.0 | 0.00 | 0.00 | 0.00 | 76 | 1011.0 |
| 20260506020056 | 63 | 231 | 7.0 | 14.0 | 0.00 | 0.00 | 0.00 | 75 | 1010.9 |
| 20260506014555 | 63 | 200 | 7.0 | 17.0 | 0.00 | 0.00 | 0.00 | 74 | 1010.9 |
| 20260506013104 | 64 | 216 | 10.0 | 20.0 | 0.00 | 0.00 | 0.00 | 72 | 1010.6 |
| 20260506011605 | 65 | 206 | 6.0 | 23.0 | 0.00 | 0.00 | 0.00 | 70 | 1010.5 |
| 20260506010054 | 66 | 169 | 9.0 | 17.0 | 0.00 | 0.00 | 0.00 | 68 | 1010.3 |
| 20260506004553 | 66 | 196 | 7.0 | 18.0 | 0.00 | 0.00 | 0.00 | 68 | 1010.1 |
| 20260506003054 | 67 | 144 | 11.0 | 21.0 | 0.00 | 0.00 | 0.00 | 67 | 1010.0 |
| 20260506001553 | 67 | 219 | 10.0 | 24.0 | 0.00 | 0.00 | 0.00 | 67 | 1009.9 |
| 20260506000051 | 67 | 220 | 6.0 | 20.0 | 0.00 | 0.00 | 0.00 | 67 | 1009.7 |
| 20260505234600 | 67 | 225 | 6.0 | 20.0 | 0.00 | 0.00 | 0.00 | 67 | 1009.7 |
| 20260505233051 | 67 | 172 | 7.0 | 15.0 | 0.00 | 0.00 | 0.00 | 67 | 1009.5 |
| 20260505231604 | 66 | 189 | 8.0 | 22.0 | 0.00 | 0.00 | 0.00 | 67 | 1009.2 |
| 20260505230052 | 67 | 206 | 9.0 | 19.0 | 0.00 | 0.00 | 0.00 | 66 | 1009.0 |
| 20260505224549 | 69 | 164 | 9.0 | 19.0 | 0.00 | 0.00 | 0.00 | 63 | 1008.9 |
| 20260505223048 | 69 | 198 | 12.0 | 22.0 | 0.00 | 0.00 | 0.00 | 62 | 1009.0 |
| 20260505221553 | 70 | 350 | 9.0 | 21.0 | 0.00 | 0.00 | 0.00 | 62 | 1008.7 |
| 20260505220046 | 70 | 171 | 12.0 | 26.0 | 0.00 | 0.00 | 0.00 | 62 | 1008.8 |
| 20260505214603 | 70 | 245 | 10.0 | 19.0 | 0.00 | 0.00 | 0.00 | 62 | 1008.5 |
| 20260505213044 | 70 | 167 | 13.0 | 20.0 | 0.00 | 0.00 | 0.00 | 63 | 1008.6 |
| 20260505211543 | 69 | 138 | 10.0 | 20.0 | 0.00 | 0.00 | 0.00 | 64 | 1008.6 |
| 20260505210044 | 70 | 210 | 12.0 | 27.0 | 0.00 | 0.00 | 0.00 | 63 | 1008.4 |
| 20260505204541 | 70 | 212 | 12.0 | 25.0 | 0.00 | 0.00 | 0.00 | 62 | 1008.5 |
| 20260505203042 | 72 | 224 | 11.0 | 25.0 | 0.00 | 0.00 | 0.00 | 61 | 1008.6 |
| 20260505201539 | 72 | 152 | 11.0 | 24.0 | 0.00 | 0.00 | 0.00 | 61 | 1008.8 |
| 20260505200044 | 73 | 207 | 8.0 | 21.0 | 0.00 | 0.00 | 0.00 | 60 | 1008.7 |
| 20260505194536 | 72 | 209 | 10.0 | 26.0 | 0.00 | 0.00 | 0.00 | 61 | 1008.8 |
| 20260505193036 | 72 | 245 | 8.0 | 20.0 | 0.00 | 0.00 | 0.00 | 62 | 1009.1 |
| 20260505191532 | 71 | 167 | 6.0 | 19.0 | 0.00 | 0.00 | 0.00 | 63 | 1009.4 |
| 20260505190039 | 71 | 232 | 9.0 | 23.0 | 0.00 | 0.00 | 0.00 | 62 | 1009.6 |
| 20260505184530 | 73 | 171 | 6.0 | 15.0 | 0.00 | 0.00 | 0.00 | 62 | 1009.7 |
| 20260505183034 | 72 | 212 | 4.0 | 20.0 | 0.00 | 0.00 | 0.00 | 64 | 1009.8 |
| 20260505181526 | 72 | 195 | 11.0 | 19.0 | 0.00 | 0.00 | 0.00 | 63 | 1009.8 |
| 20260505180025 | 72 | 148 | 5.0 | 14.0 | 0.00 | 0.00 | 0.00 | 63 | 1010.1 |
| 20260505174523 | 72 | 205 | 7.0 | 17.0 | 0.00 | 0.00 | 0.00 | 62 | 1010.4 |
| 20260505173021 | 73 | 213 | 8.0 | 17.0 | 0.00 | 0.00 | 0.00 | 61 | 1010.2 |
| 20260505171520 | 74 | 163 | 11.0 | 17.0 | 0.00 | 0.00 | 0.00 | 59 | 1010.3 |
| 20260505170021 | 74 | 221 | 7.0 | 19.0 | 0.00 | 0.00 | 0.00 | 60 | 1010.4 |
| 20260505164517 | 74 | 198 | 7.0 | 14.0 | 0.00 | 0.00 | 0.00 | 59 | 1010.4 |
| 20260505163019 | 75 | 229 | 7.0 | 17.0 | 0.00 | 0.00 | 0.00 | 57 | 1010.7 |
| 20260505161518 | 75 | 169 | 8.0 | 16.0 | 0.00 | 0.00 | 0.00 | 57 | 1010.7 |
| 20260505153008 | 73 | 245 | 3.0 | 15.0 | 0.00 | 0.00 | 0.00 | 59 | 1011.1 |
| 20260505151506 | 72 | 196 | 6.0 | 15.0 | 0.00 | 0.00 | 0.00 | 60 | 1011.3 |
| 20260505140113 | 70 | 296 | 6.0 | 13.0 | 0.00 | 0.00 | 0.00 | 63 | 1011.3 |